Location: Newark
(43.4306°N, 0.3089°E)
Time: 21:23:28
(UTC+00:00)

SR - Pass Details

Date: 25 August 2019
Orbit: 575 x 881 km, 66.7° (Epoch: 14 October)

Event Time Altitude Azimuth Distance (km) Brightness Sun altitude
Rises 21:05:10 0° 324° (NW) 3,300 ? -22.8°
Reaches altitude 10° 21:07:35 10° 319° (NW) 2,408 ? -23.1°
Maximum altitude 21:12:58 51° 245° (WSW) 1,067 ? -23.8°
Enters shadow 21:14:53 36° 195° (SSW) 1,329 ? -24.1°
